Regional Weather Roundup
Issued by NWS Raleigh/Durham, NC

Home | Current Version | Previous Version | Text Only | Print | Product List | Glossary On
Versions: 1 2 3 4 5 6 7 8 9 10 11 12 13 14 15 16 17 18 19 20 21 22 23 24 25 26 27
000
ASUS42 KRAH 200810
RWRRAH
NORTH CAROLINA WEATHER ROUNDUP
NATIONAL WEATHER SERVICE RALEIGH NC
300 AM EST MON NOV 20 2017

NOTE: "FAIR" INDICATES FEW OR NO CLOUDS BELOW 12,000 FEET WITH NO
SIGNIFICANT WEATHER AND/OR OBSTRUCTIONS TO VISIBILITY.

NCZ001-053-055-056-065-067-200900-
WESTERN NORTH CAROLINA

CITY           SKY/WX    TMP DP  RH WIND       PRES   REMARKS
ASHEVILLE      CLEAR     32  26  78 N14       30.14R WCI  22
JEFFERSON      CLEAR     27  21  77 SE6       30.05R WCI  20
HICKORY        CLEAR     32  25  75 W3        30.11R
RUTHERFORDTON  CLEAR     28  28 100 CALM      30.14R
MOUNT AIRY     CLEAR     38  22  52 NW5       30.13S WCI  34
BOONE          PTCLDY    28  22  78 W14G23    30.06R WCI  17
$$

NCZ021-022-025-041-071-084-088-200900-
CENTRAL NORTH CAROLINA

CITY           SKY/WX    TMP DP  RH WIND       PRES   REMARKS
CHARLOTTE      CLEAR     30  28  92 CALM      30.14R
GREENSBORO     CLEAR     32  25  75 NW5       30.11R WCI  27
WINSTON-SALEM  CLEAR     37  23  56 NW3       30.13R
RALEIGH-DURHAM CLEAR     31  27  85 CALM      30.14R
FORT BRAGG     CLEAR     31  28  88 CALM      30.13S
FAYETTEVILLE   CLEAR     40  27  59 NW6       30.14R
BURLINGTON     CLEAR     27  26  96 CALM      30.12R
LAURINBURG     CLEAR     31  27  85 CALM      30.15R
$$

NCZ011-015-027-028-043-044-047-080-103-200900-
NORTHEASTERN NORTH CAROLINA

CITY           SKY/WX    TMP DP  RH WIND       PRES   REMARKS
ROCKY MT-WILSO CLEAR     35  28  75 SW3       30.13R
GREENVILLE     CLEAR     34  30  86 CALM      30.13R
WASHINGTON     CLEAR     37  28  71 CALM      30.12R
ELIZABETH CITY CLEAR     36  29  75 W6        30.09R WCI  31
MANTEO         CLEAR     44  32  61 NW9       30.08R
CAPE HATTERAS  CLEAR     47  34  60 NW10G21   30.07R
$$

NCZ078-087-090-091-093-098-101-200900-
SOUTHEASTERN NORTH CAROLINA

CITY           SKY/WX    TMP DP  RH WIND       PRES   REMARKS
LUMBERTON      CLEAR     31  27  85 CALM      30.14R
GOLDSBORO      CLEAR     36  28  74 W3        30.12R
KINSTON        CLEAR     32  28  85 CALM      30.13R
KENANSVILLE    CLEAR     32  27  80 CALM      30.14R
NEW BERN       CLEAR     37  30  75 CALM      30.14R
CHERRY POINT   NOT AVBL
BEAUFORT       CLEAR     43  30  60 NW12      30.11R
JACKSONVILLE   NOT AVBL
WILMINGTON     CLEAR     37  32  82 NW5       30.14R WCI  33
$$





USA.gov is the U.S. government's official web portal to all federal, state and local government web resources and services.